Home > Time Zones > World Clock > Weather > U.S.A. > Waco > Past weeks

Flag for U.S.A. Weather past 2 weeks in Waco, Texas, U.S.A.

Now
76 °F

Sunny.


Feels Like: 77 °F
Forecast: 54 / 80 °F
Wind: 16 mph from South

Location: Waco Regional Airport

Current Time: Mar 28, 2015 at 7:44:28 PM

Latest Report: Mar 28, 2015 at 6:51 PM


Visibility: 10 mi

Pressure: 29.95 "Hg

Humidity: 33%

Dew point: 45 °F

Location of WacoLocation

Historic Weather in Waco — Graph

°F

Waco temperature yesterday

Maximum temperature yesterday: 75 °F (at 4:51 PM)
Minimum temperature yesterday: 38 °F (at 5:51 AM)
Average temperature yesterday: 57 °F

Past Weeks' High & Low Weather Summary

 TemperatureHumidityPressure
High83 °F (Mar 28, 3:51 PM)100% (Mar 16, 3:51 AM)30.31 "Hg (Mar 16, 3:51 AM)
Low38 °F (Mar 27, 5:51 AM)27% (Mar 28, 4:51 PM)29.78 "Hg (Mar 25, 6:51 PM)
Average62 °F78%30.06 "Hg
* Reported Mar 13 5:51 PM — Mar 28 5:51 PM, Waco, Weather by CustomWeather, © 2015

Note: Actual official high and low records may vary slightly from our data, if they occured in-between our weather recording intervals... More about our weather records

Advertising

Waco weather history for previous 24 hours

 ConditionsComfort  
Time TempWeatherWind HumidityBarometerVisibility
5:51 PM
Sat, Mar 28
80 °FSunny.15 mph30%29.94 "Hg10 mi
4:51 PM82 °FSunny.17 mph27%29.95 "Hg10 mi
3:51 PM83 °FSunny.17 mph30%29.96 "Hg10 mi
2:51 PM82 °FSunny.16 mph28%29.99 "Hg10 mi
1:51 PM80 °FSunny.12 mph34%30.02 "Hg10 mi
12:51 PM75 °FSunny.13 mph40%30.06 "Hg10 mi
11:51 AM71 °FSunny.10 mph45%30.07 "Hg10 mi
10:51 AM65 °FSunny.12 mph52%30.09 "Hg10 mi
9:51 AM60 °FSunny.12 mph58%30.10 "Hg10 mi
8:51 AM56 °FSunny.13 mph62%30.10 "Hg10 mi
7:51 AM51 °FClear.13 mph69%30.10 "Hg10 mi
6:51 AM46 °FClear.7 mph79%30.10 "Hg10 mi
5:51 AM46 °FClear.8 mph79%30.10 "Hg10 mi
4:51 AM48 °FClear.3 mph74%30.11 "Hg10 mi
3:51 AM49 °FClear.5 mph74%30.12 "Hg10 mi
2:51 AM47 °FClear.No wind83%30.14 "Hg10 mi
1:51 AM47 °FClear.3 mph83%30.15 "Hg10 mi
12:51 AM51 °FClear.No wind74%30.16 "Hg10 mi
11:51 PM
Fri, Mar 27
52 °FClear.6 mph72%30.14 "Hg10 mi
10:51 PM56 °FClear.5 mph62%30.14 "Hg10 mi
9:51 PM56 °FClear.7 mph62%30.14 "Hg10 mi
8:51 PM61 °FClear.7 mph48%30.11 "Hg10 mi
7:51 PM64 °FSunny.7 mph45%30.10 "Hg10 mi
Weather by CustomWeather, © 2015

See weather overviewHow to use our weather pages